Regional Weather Roundup
Issued by NWS Sioux Falls, SD

Home | Current Version | Previous Version | Text Only | Print | Product List | Glossary Off
Versions: 1 2 3 4 5 6 7 8 9 10 11 12 13 14 15 16 17 18 19 20 21 22 23 24 25 26 27 28 29 30 31 32 33 34 35 36 37 38 39 40 41 42 43 44 45 46 47 48 49 50

000
ASUS43 KFSD 270302
RWRFSD

WEATHER ROUNDUP FOR SE SOUTH DAKOTA/SW MINNESOTA/NW IOWA
NATIONAL WEATHER SERVICE SIOUX FALLS SD
1000 PM CDT MON JUN 26 2017

NOTE: "FAIR" INDICATES FEW OR NO CLOUDS BELOW 12,000 FEET WITH NO
SIGNIFICANT WEATHER AND OR OBSTRUCTIONS TO VISIBILITY.


SDZ038>040-050-052>070-270400-
SOUTHEAST SOUTH DAKOTA

CITY           SKY/WX    TMP DP  RH WIND       PRES   REMARKS
BROOKINGS      CLEAR     60  39  45 CALM      30.14S
CHAMBERLAIN    CLEAR     61  42  50 E7        30.11R
HURON          CLEAR     61  40  45 E5        30.11S
MADISON        FAIR      55  43  62 E6        30.14S
MITCHELL       CLEAR     60  42  51 SE6       30.12S
SIOUX FALLS    PTCLDY    57  47  69 E5        30.13S
WINNER         FAIR      60  40  47 SE9       30.10F
$$

MNZ071-072-080-081-089-090-097-098-270400-
SOUTHWEST MINNESOTA

CITY           SKY/WX    TMP DP  RH WIND       PRES   REMARKS
FAIRMONT       CLEAR     59  45  59 CALM      30.14R
JACKSON        CLEAR     57  43  58 CALM      30.15S
LUVERNE        CLEAR     59  45  58 CALM      30.15R
MARSHALL       CLEAR     61  44  53 CALM      30.14S
MONTEVIDEO     CLEAR     63  39  42 CALM      30.13S
PIPESTONE      CLEAR     61  39  44 CALM      30.15R
REDWOOD FALLS  CLEAR     63  40  42 W3        30.12S
TRACY          CLEAR     60  45  57 CALM      30.14S
WINDOM         CLEAR     57  41  54 CALM      30.15R
WORTHINGTON    CLEAR     59  45  59 CALM      30.16R
$$

IAZ001>003-012>014-020>022-031-032-NEZ013-014-SDZ071-270400-
NORTHWEST IOWA

CITY           SKY/WX    TMP DP  RH WIND       PRES   REMARKS
CHEROKEE       CLEAR     58  44  61 CALM      30.15R
DENISON        CLEAR     61  46  59 CALM      30.15R
ESTHERVILLE    CLEAR     56  47  71 CALM      30.14R
LE MARS        CLEAR     57  48  72 CALM      30.15R
ORANGE CITY    CLEAR     64  45  48 CALM      30.15R
SHELDON        CLEAR     55  50  82 E5        30.13S
SIOUX CITY     CLEAR     65  40  39 NE5       30.13S
SPENCER        CLEAR     57  45  64 CALM      30.15R
STORM LAKE     CLEAR     61  43  51 N5        30.15R
$$

ABBREVIATIONS USED IN REMARKS
   TC - TEMPERATURE IN CELSIUS
  WCI - WIND CHILL INDEX
   HX - HEAT INDEX
  VSB - VISIBILITY




USA.gov is the U.S. government's official web portal to all federal, state and local government web resources and services.